Torna al catalogo

STARLINK-5021

AttivoComunicazioniVLEO
NORAD 53902·PAYLOAD·🇺🇸 United States

Lanciato Sep 24, 2022 da Cape Canaveral Space Force Station

Loading…

Prossimi Passaggi (prossime 24 ore)

TLE

AggiornatoSource: CelesTrak SupGP

Epoca: Sep 14, 2026, 21:22 UTC

1 53902C 22119S   26257.89076389 -.00026221  00000+0 -84330-3 0  2578
2 53902  53.1576 134.6013 0001278  91.0411 325.9507 15.31711546    16

Traccia STARLINK-5021 in tempo reale con AllMySat

Download on the App Store